Location: *
(49.3500°N, 12.6000°E)
Time: 17:32:19
(UTC+00:00)

Okean-O - Pass Details

Date: 18 October 2019
Orbit: 639 x 641 km, 98.2° (Epoch: 14 November)

Event Time Altitude Azimuth Distance (km) Brightness Sun altitude
Rises 17:24:19 0° 187° (S) 2,934 6.1 -12.1°
Reaches altitude 10° 17:26:39 10° 196° (SSW) 2,030 5.4 -12.5°
Maximum altitude 17:30:44 36° 263° (W) 1,023 4.4 -13.2°
Drops below altitude 10° 17:34:51 10° 330° (NNW) 2,045 5.6 -13.9°
Sets 17:37:13 0° 339° (NNW) 2,959 6.4 -14.2°
